ANZ948 NZCH-NZWN

Flight info

Callsign ANZ948
Flight time 0h 36m
Altitude 19000
Route GRETA Y393 WARDS
Aircraft A20N/M-SDE2E3FGHIRWXY/LB1

Departure

Time 2026-05-07 23:09
Airport Christchurch International Airport (NZCH)

Arrival

Time 2026-05-07 23:45
Airport Wellington International Airport (NZWN)
Time Latitude Longitude Altitude Speed Heading
2026-05-07 22:59 -43.48789 172.53821 120 ft 0 kts 107°
2026-05-07 23:01 -43.48790 172.53825 120 ft 0 kts 108°
2026-05-07 23:02 -43.48790 172.53826 120 ft 0 kts 108°
2026-05-07 23:02 -43.48786 172.53809 121 ft 2 kts 108°
2026-05-07 23:02 -43.48781 172.53788 116 ft 2 kts 108°
2026-05-07 23:02 -43.48776 172.53767 118 ft 2 kts 108°
2026-05-07 23:03 -43.48772 172.53746 117 ft 2 kts 111°
2026-05-07 23:03 -43.48761 172.53726 119 ft 3 kts 150°
2026-05-07 23:03 -43.48744 172.53720 119 ft 3 kts 191°
2026-05-07 23:03 -43.48731 172.53728 118 ft 0 kts 224°
2026-05-07 23:04 -43.48731 172.53727 117 ft 0 kts 224°
2026-05-07 23:04 -43.48732 172.53726 121 ft 0 kts 224°
2026-05-07 23:05 -43.48741 172.53717 118 ft 5 kts 216°
2026-05-07 23:05 -43.48811 172.53648 120 ft 19 kts 221°
2026-05-07 23:05 -43.48951 172.53491 119 ft 32 kts 219°
2026-05-07 23:05 -43.49153 172.53254 117 ft 43 kts 220°
2026-05-07 23:06 -43.49392 172.52981 125 ft 45 kts 218°
2026-05-07 23:06 -43.49508 172.52767 131 ft 24 kts 270°
2026-05-07 23:06 -43.49506 172.52725 131 ft 0 kts 276°
2026-05-07 23:07 -43.49506 172.52721 131 ft 2 kts 275°
2026-05-07 23:07 -43.49490 172.52629 126 ft 19 kts 295°
2026-05-07 23:08 -43.49426 172.52588 126 ft 6 kts 47°
2026-05-07 23:08 -43.49411 172.52610 127 ft 0 kts 45°
2026-05-07 23:08 -43.49318 172.52724 124 ft 58 kts 40°
2026-05-07 23:08 -43.48712 172.53420 164 ft 162 kts 42°
2026-05-07 23:09 -43.47764 172.54544 939 ft 191 kts 45°
2026-05-07 23:09 -43.46753 172.55822 2211 ft 204 kts 29°
2026-05-07 23:09 -43.45331 172.56277 3078 ft 228 kts
2026-05-07 23:09 -43.43696 172.56223 4090 ft 240 kts
2026-05-07 23:10 -43.42018 172.56541 5306 ft 247 kts 12°
2026-05-07 23:10 -43.40396 172.57366 6628 ft 252 kts 20°
2026-05-07 23:10 -43.38842 172.58539 7935 ft 258 kts 25°
2026-05-07 23:10 -43.37335 172.59936 9262 ft 265 kts 28°
2026-05-07 23:11 -43.35845 172.61472 10415 ft 274 kts 30°
2026-05-07 23:11 -43.34277 172.63167 11085 ft 300 kts 32°
2026-05-07 23:11 -43.32611 172.65033 11915 ft 316 kts 33°
2026-05-07 23:11 -43.30900 172.66991 13012 ft 323 kts 33°
2026-05-07 23:12 -43.29164 172.68990 14066 ft 328 kts 33°
2026-05-07 23:12 -43.27402 172.71022 15092 ft 333 kts 33°
2026-05-07 23:12 -43.25616 172.73081 16105 ft 338 kts 33°
2026-05-07 23:12 -43.23796 172.75175 17121 ft 344 kts 33°
2026-05-07 23:13 -43.21954 172.77294 18000 ft 349 kts 33°
2026-05-07 23:13 -43.20083 172.79445 18462 ft 352 kts 33°
2026-05-07 23:13 -43.18203 172.81605 18640 ft 350 kts 33°
2026-05-07 23:13 -43.16351 172.83737 18670 ft 346 kts 33°
2026-05-07 23:14 -43.14510 172.85850 18669 ft 345 kts 33°
2026-05-07 23:14 -43.12667 172.87961 18671 ft 345 kts 33°
2026-05-07 23:14 -43.10825 172.90068 18672 ft 345 kts 33°
2026-05-07 23:14 -43.08981 172.92176 18673 ft 345 kts 33°
2026-05-07 23:15 -43.07141 172.94278 18678 ft 345 kts 33°
2026-05-07 23:15 -43.05297 172.96383 18679 ft 345 kts 33°
2026-05-07 23:15 -43.03452 172.98487 18679 ft 345 kts 33°
2026-05-07 23:15 -43.01606 173.00591 18678 ft 346 kts 33°
2026-05-07 23:16 -42.99759 173.02694 18679 ft 346 kts 33°
2026-05-07 23:16 -42.97911 173.04797 18681 ft 346 kts 33°
2026-05-07 23:16 -42.96038 173.06852 18685 ft 345 kts 32°
2026-05-07 23:16 -42.94132 173.08827 18685 ft 344 kts 31°
2026-05-07 23:17 -42.92207 173.10761 18682 ft 344 kts 30°
2026-05-07 23:17 -42.90271 173.12680 18683 ft 344 kts 30°
2026-05-07 23:17 -42.88333 173.14597 18681 ft 344 kts 30°
2026-05-07 23:17 -42.86396 173.16517 18689 ft 344 kts 30°
2026-05-07 23:18 -42.84463 173.18440 18687 ft 344 kts 30°
2026-05-07 23:18 -42.82528 173.20370 18691 ft 345 kts 30°
2026-05-07 23:18 -42.80585 173.22309 18642 ft 350 kts 30°
2026-05-07 23:18 -42.78604 173.24283 18693 ft 355 kts 31°
2026-05-07 23:19 -42.76613 173.26271 18700 ft 356 kts 31°
2026-05-07 23:19 -42.74616 173.28267 18696 ft 356 kts 31°
2026-05-07 23:19 -42.72619 173.30263 18701 ft 357 kts 31°
2026-05-07 23:19 -42.70617 173.32261 18701 ft 357 kts 31°
2026-05-07 23:20 -42.68618 173.34254 18698 ft 357 kts 31°
2026-05-07 23:20 -42.66617 173.36247 18699 ft 356 kts 31°
2026-05-07 23:20 -42.64616 173.38236 18698 ft 356 kts 31°
2026-05-07 23:20 -42.62616 173.40223 18702 ft 356 kts 31°
2026-05-07 23:21 -42.60616 173.42208 18701 ft 356 kts 31°
2026-05-07 23:21 -42.58613 173.44194 18705 ft 356 kts 31°
2026-05-07 23:21 -42.56611 173.46178 18706 ft 356 kts 31°
2026-05-07 23:21 -42.54611 173.48156 18705 ft 356 kts 31°
2026-05-07 23:22 -42.52608 173.50136 18712 ft 356 kts 31°
2026-05-07 23:22 -42.50632 173.52088 18708 ft 356 kts 31°
2026-05-07 23:22 -42.48629 173.54067 18710 ft 356 kts 31°
2026-05-07 23:22 -42.46627 173.56043 18714 ft 356 kts 31°
2026-05-07 23:23 -42.44626 173.58016 18715 ft 356 kts 31°
2026-05-07 23:23 -42.42625 173.59986 18722 ft 356 kts 31°
2026-05-07 23:23 -42.40623 173.61957 18720 ft 355 kts 31°
2026-05-07 23:23 -42.38625 173.63923 18717 ft 355 kts 31°
2026-05-07 23:24 -42.36628 173.65886 18725 ft 355 kts 31°
2026-05-07 23:24 -42.34633 173.67846 18723 ft 355 kts 31°
2026-05-07 23:24 -42.32635 173.69806 18724 ft 355 kts 31°
2026-05-07 23:24 -42.30637 173.71764 18727 ft 355 kts 31°
2026-05-07 23:25 -42.28637 173.73723 18733 ft 355 kts 31°
2026-05-07 23:25 -42.26637 173.75681 18735 ft 355 kts 31°
2026-05-07 23:25 -42.24637 173.77636 18736 ft 355 kts 31°
2026-05-07 23:25 -42.22633 173.79594 18741 ft 355 kts 31°
2026-05-07 23:26 -42.20629 173.81551 18745 ft 356 kts 30°
2026-05-07 23:26 -42.18626 173.83505 18742 ft 356 kts 31°
2026-05-07 23:26 -42.16622 173.85460 18752 ft 355 kts 30°
2026-05-07 23:26 -42.14620 173.87410 18752 ft 355 kts 30°
2026-05-07 23:27 -42.10649 173.91275 18749 ft 356 kts 30°
2026-05-07 23:27 -42.08605 173.93256 18537 ft 366 kts 30°
2026-05-07 23:27 -42.06531 173.95267 18304 ft 368 kts 30°
2026-05-07 23:28 -42.04457 173.97282 18084 ft 367 kts 30°
2026-05-07 23:28 -42.02395 173.99284 17820 ft 364 kts 30°
2026-05-07 23:28 -42.00372 174.01250 17371 ft 354 kts 30°
2026-05-07 23:28 -41.98387 174.03175 16797 ft 349 kts 30°
2026-05-07 23:29 -41.96428 174.05071 16226 ft 345 kts 30°
2026-05-07 23:29 -41.94493 174.06942 15655 ft 341 kts 30°
2026-05-07 23:29 -41.92582 174.08787 15096 ft 336 kts 30°
2026-05-07 23:29 -41.90694 174.10609 14545 ft 333 kts 30°
2026-05-07 23:30 -41.88820 174.12416 13980 ft 330 kts 30°
2026-05-07 23:30 -41.86962 174.14206 13393 ft 328 kts 30°
2026-05-07 23:30 -41.85116 174.15985 12878 ft 324 kts 30°
2026-05-07 23:30 -41.83310 174.17727 12475 ft 316 kts 29°
2026-05-07 23:31 -41.81536 174.19433 11968 ft 312 kts 29°
2026-05-07 23:31 -41.79778 174.21120 11424 ft 310 kts 29°
2026-05-07 23:31 -41.78036 174.22792 10900 ft 307 kts 28°
2026-05-07 23:31 -41.76331 174.24431 10605 ft 293 kts 29°
2026-05-07 23:32 -41.74738 174.25970 10501 ft 273 kts 27°
2026-05-07 23:32 -41.73258 174.27522 10290 ft 269 kts 33°
2026-05-07 23:32 -41.71906 174.29229 9985 ft 267 kts 35°
2026-05-07 23:32 -41.70588 174.30975 9572 ft 267 kts 36°
2026-05-07 23:33 -41.69277 174.32729 9158 ft 265 kts 36°
2026-05-07 23:33 -41.67977 174.34471 8761 ft 263 kts 36°
2026-05-07 23:33 -41.66690 174.36192 8374 ft 261 kts 36°
2026-05-07 23:33 -41.65410 174.37901 7987 ft 259 kts 36°
2026-05-07 23:34 -41.64141 174.39592 7613 ft 257 kts 35°
2026-05-07 23:34 -41.62880 174.41272 7229 ft 255 kts 35°
2026-05-07 23:34 -41.61624 174.42942 6847 ft 254 kts 35°
2026-05-07 23:34 -41.60378 174.44600 6475 ft 252 kts 35°
2026-05-07 23:35 -41.59152 174.46234 6239 ft 243 kts 35°
2026-05-07 23:35 -41.57990 174.47791 6094 ft 230 kts 34°
2026-05-07 23:35 -41.56888 174.49265 5959 ft 218 kts 33°
2026-05-07 23:35 -41.55843 174.50658 5844 ft 207 kts 33°
2026-05-07 23:36 -41.54836 174.51992 5622 ft 203 kts 32°
2026-05-07 23:36 -41.53853 174.53287 5360 ft 199 kts 32°
2026-05-07 23:36 -41.52871 174.54580 5058 ft 198 kts 32°
2026-05-07 23:36 -41.51892 174.55869 4707 ft 198 kts 32°
2026-05-07 23:37 -41.50917 174.57157 4373 ft 196 kts 32°
2026-05-07 23:37 -41.49950 174.58437 3932 ft 197 kts 33°
2026-05-07 23:37 -41.49106 174.59869 3760 ft 197 kts 47°
2026-05-07 23:37 -41.48549 174.61514 3671 ft 191 kts 54°
2026-05-07 23:38 -41.48112 174.63133 3591 ft 180 kts 56°
2026-05-07 23:38 -41.47715 174.64658 3535 ft 168 kts 55°
2026-05-07 23:38 -41.47344 174.66082 3477 ft 156 kts 54°
2026-05-07 23:38 -41.47001 174.67388 3367 ft 144 kts 53°
2026-05-07 23:39 -41.46670 174.68616 3124 ft 138 kts 51°
2026-05-07 23:39 -41.46347 174.69800 2841 ft 134 kts 50°
2026-05-07 23:39 -41.46029 174.70958 2556 ft 133 kts 50°
2026-05-07 23:39 -41.45710 174.72113 2220 ft 133 kts 50°
2026-05-07 23:40 -41.45397 174.73260 2098 ft 132 kts 50°
2026-05-07 23:40 -41.45079 174.74413 2077 ft 133 kts 51°
2026-05-07 23:40 -41.44760 174.75579 2068 ft 134 kts 51°
2026-05-07 23:40 -41.44447 174.76740 2105 ft 132 kts 51°
2026-05-07 23:41 -41.44134 174.77893 2072 ft 133 kts 51°
2026-05-07 23:41 -41.43778 174.79002 2073 ft 125 kts 39°
2026-05-07 23:41 -41.43183 174.79762 2071 ft 116 kts 15°
2026-05-07 23:41 -41.42468 174.80018 1949 ft 99 kts 355°
2026-05-07 23:42 -41.41808 174.80070 1742 ft 91 kts 355°
2026-05-07 23:42 -41.41202 174.80112 1558 ft 83 kts 358°
2026-05-07 23:42 -41.40632 174.80151 1443 ft 82 kts 358°
2026-05-07 23:42 -41.40054 174.80191 1390 ft 84 kts 357°
2026-05-07 23:43 -41.39469 174.80231 1322 ft 84 kts 356°
2026-05-07 23:43 -41.38880 174.80270 1181 ft 85 kts 358°
2026-05-07 23:43 -41.38279 174.80310 1059 ft 87 kts 359°
2026-05-07 23:43 -41.37666 174.80351 951 ft 89 kts 360°
2026-05-07 23:44 -41.37051 174.80393 855 ft 90 kts
2026-05-07 23:44 -41.36420 174.80433 691 ft 91 kts
2026-05-07 23:44 -41.35782 174.80476 502 ft 93 kts
2026-05-07 23:44 -41.35127 174.80520 385 ft 95 kts
2026-05-07 23:45 -41.34460 174.80567 299 ft 97 kts
2026-05-07 23:45 -41.33780 174.80616 125 ft 96 kts
2026-05-07 23:45 -41.33134 174.80670 30 ft 85 kts
2026-05-07 23:45 -41.32769 174.80701 29 ft 11 kts
2026-05-07 23:46 -41.32748 174.80702 30 ft 6 kts
2026-05-07 23:46 -41.32696 174.80727 30 ft 8 kts 49°
2026-05-07 23:46 -41.32688 174.80765 29 ft 0 kts 89°
2026-05-07 23:46 -41.32688 174.80767 29 ft 0 kts 92°
2026-05-07 23:47 -41.32689 174.80784 29 ft 7 kts 92°
2026-05-07 23:47 -41.32705 174.80839 29 ft 7 kts 121°
2026-05-07 23:48 -41.32727 174.80873 29 ft 8 kts 143°
2026-05-07 23:48 -41.32790 174.80887 29 ft 11 kts 182°
2026-05-07 23:48 -41.32806 174.80886 29 ft 0 kts 184°
2026-05-07 23:50 -41.32807 174.80886 29 ft 1 kts 184°
2026-05-07 23:50 -41.32829 174.80884 29 ft 5 kts 180°
2026-05-07 23:50 -41.32868 174.80912 29 ft 7 kts 124°
2026-05-07 23:51 -41.32869 174.80953 29 ft 3 kts 90°
2026-05-07 23:51 -41.32870 174.80992 29 ft 4 kts 65°
2026-05-07 23:51 -41.32863 174.81003 29 ft 0 kts 49°
2026-05-07 23:51 -41.32861 174.81007 29 ft 0 kts 51°